Hallock, MN

3:38 AM CDT on July 28, 2017 (GMT -0500)
Hallock Municipal

Weather History for KHCO - October, 2012

Change the Weather History Date:

Sunday, October 28, 2012

  Actual Average Record
Temperature  
Mean Temperature 27 °F -  
Max Temperature 35 °F 46 °F 69 °F (1937)
Min Temperature 19 °F 26 °F 10 °F (1941)
Degree Days  
Heating Degree Days 38    
Moisture  
Dew Point 18 °F    
Average Humidity 71    
Maximum Humidity 93    
Minimum Humidity 44    
Precipitation  
Precipitation 0.00 in - - ()
Sea Level Pressure  
Sea Level Pressure 30.30 in    
Wind  
Wind Speed 6 mph (East)    
Max Wind Speed 12 mph    
Max Gust Speed -    
Visibility 10 miles    
Events      
Averages and records for this station are not official NWS values.
T = Trace of Precipitation, MM = Missing Value Source: NWS Daily Summary

Daily Weather History Graph

Daily Weather History Graph

Search for Another Location

Airport or City:

Trip Planner

Search our weather history database for the weather conditions in past years. The results will help you decide how hot, cold, wet, or windy it might be!

Date:

Astronomy

Oct. 28, 2012 Rise Set
Actual Time 8:08 AM CDT 6:13 PM CDT
Civil Twilight 7:36 AM CDT 6:45 PM CDT
Nautical Twilight 6:59 AM CDT 7:22 PM CDT
Astronomical Twilight 6:22 AM CDT 7:59 PM CDT
Moon 5:32 PM CDT 7:01 AM CDT
Length of Visible Light 11h 09m
Length of Day
10h 04m
Waxing Gibbous, 99% of the Moon is Illuminated
Oct 28
Waxing Gibbous
Oct 29
Full
Nov 6
Last Quarter
Nov 13
New
Nov 20
First Quarter

Hourly Weather History & Observations

Time (CDT) Temp. Windchill Dew Point Humidity Pressure Visibility Wind Dir Wind Speed Gust Speed Precip Events Conditions
12:13 AM 24.8 °F 20.5 °F 21.2 °F 86% 30.32 in 10.0 mi East 3.5 mph - N/A   Overcast
1:13 AM 24.8 °F 19.1 °F 19.4 °F 80% 30.32 in 10.0 mi East 4.6 mph - N/A   Mostly Cloudy
1:34 AM 23.0 °F 17.0 °F 19.4 °F 86% 30.32 in 10.0 mi East 4.6 mph - N/A   Scattered Clouds
1:54 AM 23.0 °F 17.0 °F 19.4 °F 86% 30.32 in 10.0 mi East 4.6 mph - N/A   Scattered Clouds
2:14 AM 24.8 °F 19.1 °F 19.4 °F 80% 30.32 in 10.0 mi East 4.6 mph - N/A   Mostly Cloudy
2:34 AM 23.0 °F 17.0 °F 19.4 °F 86% 30.32 in 10.0 mi East 4.6 mph - N/A   Scattered Clouds
2:54 AM 21.2 °F 14.9 °F 17.6 °F 86% 30.32 in 10.0 mi East 4.6 mph - N/A   Scattered Clouds
3:14 AM 21.2 °F 14.9 °F 17.6 °F 86% 30.32 in 10.0 mi East 4.6 mph - N/A   Scattered Clouds
3:34 AM 21.2 °F 14.9 °F 17.6 °F 86% 30.32 in 10.0 mi East 4.6 mph - N/A   Scattered Clouds
3:54 AM 21.2 °F 16.4 °F 17.6 °F 86% 30.32 in 10.0 mi East 3.5 mph - N/A   Clear
4:14 AM 19.4 °F 12.8 °F 17.6 °F 93% 30.32 in 10.0 mi East 4.6 mph - N/A   Clear
4:34 AM 21.2 °F 14.9 °F 17.6 °F 86% 30.32 in 10.0 mi East 4.6 mph - N/A   Clear
4:54 AM 21.2 °F 13.6 °F 17.6 °F 86% 30.32 in 10.0 mi East 5.8 mph - N/A   Clear
5:14 AM 21.2 °F 14.9 °F 17.6 °F 86% 30.32 in 10.0 mi ENE 4.6 mph - N/A   Clear
5:34 AM 21.2 °F 13.6 °F 17.6 °F 86% 30.32 in 10.0 mi ENE 5.8 mph - N/A   Mostly Cloudy
5:54 AM 21.2 °F 14.9 °F 17.6 °F 86% 30.32 in 10.0 mi ENE 4.6 mph - N/A   Mostly Cloudy
6:14 AM 19.4 °F 11.5 °F 17.6 °F 93% 30.32 in 10.0 mi ENE 5.8 mph - N/A   Scattered Clouds
6:34 AM 19.4 °F 11.5 °F 17.6 °F 93% 30.32 in 10.0 mi East 5.8 mph - N/A   Clear
6:54 AM 19.4 °F 11.5 °F 15.8 °F 86% 30.33 in 10.0 mi East 5.8 mph - N/A   Clear
7:14 AM 19.4 °F 10.4 °F 15.8 °F 86% 30.33 in 10.0 mi ENE 6.9 mph - N/A   Scattered Clouds
7:34 AM 19.4 °F 11.5 °F 15.8 °F 86% 30.33 in 10.0 mi East 5.8 mph - N/A   Scattered Clouds
7:54 AM 19.4 °F 9.5 °F 15.8 °F 86% 30.33 in 10.0 mi East 8.1 mph - N/A   Clear
8:13 AM 19.4 °F 10.4 °F 15.8 °F 86% 30.33 in 10.0 mi East 6.9 mph - N/A   Clear
8:34 AM 19.4 °F 9.5 °F 15.8 °F 86% 30.33 in 10.0 mi East 8.1 mph - N/A   Clear
8:54 AM 21.2 °F 11.7 °F 17.6 °F 86% 30.33 in 10.0 mi East 8.1 mph - N/A   Clear
9:13 AM 21.2 °F 11.7 °F 17.6 °F 86% 30.33 in 10.0 mi East 8.1 mph - N/A   Clear
9:54 AM 24.8 °F 15.3 °F 19.4 °F 80% 30.33 in 10.0 mi East 9.2 mph - N/A   Clear
10:13 AM 26.6 °F 16.8 °F 19.4 °F 74% 30.32 in 10.0 mi East 10.4 mph - N/A   Clear
10:34 AM 28.4 °F 19.1 °F 19.4 °F 69% 30.32 in 10.0 mi ESE 10.4 mph - N/A   Clear
10:54 AM 28.4 °F 18.5 °F 19.4 °F 69% 30.32 in 10.0 mi East 11.5 mph - N/A   Clear
11:13 AM 30.2 °F 20.8 °F 17.6 °F 60% 30.32 in 10.0 mi ESE 11.5 mph - N/A   Clear
11:34 AM 30.2 °F 20.8 °F 17.6 °F 60% 30.32 in 10.0 mi ESE 11.5 mph - N/A   Clear
12:14 PM 32.0 °F 24.2 °F 19.4 °F 60% 30.31 in 10.0 mi ESE 9.2 mph - N/A   Clear
12:34 PM 33.8 °F 25.8 °F 17.6 °F 52% 30.31 in 10.0 mi SE 10.4 mph - N/A   Clear
12:54 PM 33.8 °F 27.7 °F 17.6 °F 52% 30.31 in 10.0 mi ESE 6.9 mph - N/A   Clear
1:14 PM 33.8 °F 28.6 °F 17.6 °F 52% 30.30 in 10.0 mi ESE 5.8 mph - N/A   Clear
1:34 PM 33.8 °F 28.6 °F 15.8 °F 48% 30.30 in 10.0 mi SSE 5.8 mph - N/A   Scattered Clouds
1:53 PM 35.6 °F 29.2 °F 15.8 °F 44% 30.29 in 10.0 mi ESE 8.1 mph - N/A   Scattered Clouds
2:14 PM 35.6 °F 31.7 °F 15.8 °F 44% 30.30 in 10.0 mi SE 4.6 mph - N/A   Mostly Cloudy
2:34 PM 33.8 °F 27.0 °F 17.6 °F 52% 30.29 in 10.0 mi South 8.1 mph - N/A   Overcast
2:53 PM 33.8 °F 28.6 °F 15.8 °F 48% 30.29 in 10.0 mi SSE 5.8 mph - N/A   Overcast
3:14 PM 35.6 °F 30.7 °F 17.6 °F 48% 30.28 in 10.0 mi SE 5.8 mph - N/A   Overcast
3:34 PM 35.6 °F 32.8 °F 15.8 °F 44% 30.27 in 10.0 mi ESE 3.5 mph - N/A   Mostly Cloudy
3:53 PM 35.6 °F 29.2 °F 15.8 °F 44% 30.27 in 10.0 mi SSE 8.1 mph - N/A   Scattered Clouds
4:14 PM 35.6 °F 29.9 °F 15.8 °F 44% 30.27 in 10.0 mi SE 6.9 mph - N/A   Scattered Clouds
4:34 PM 33.8 °F 30.8 °F 15.8 °F 48% 30.27 in 10.0 mi East 3.5 mph - N/A   Clear
4:53 PM 35.6 °F 31.7 °F 15.8 °F 44% 30.27 in 10.0 mi East 4.6 mph - N/A   Clear
5:14 PM 33.8 °F 28.6 °F 15.8 °F 48% 30.27 in 10.0 mi East 5.8 mph - N/A   Mostly Cloudy
5:33 PM 33.8 °F 27.7 °F 17.6 °F 52% 30.27 in 10.0 mi East 6.9 mph - N/A   Overcast
5:54 PM 33.8 °F 28.6 °F 17.6 °F 52% 30.27 in 10.0 mi East 5.8 mph - N/A   Overcast
6:14 PM 33.8 °F 27.7 °F 19.4 °F 56% 30.27 in 10.0 mi East 6.9 mph - N/A   Overcast
6:33 PM 32.0 °F 26.4 °F 19.4 °F 60% 30.27 in 10.0 mi East 5.8 mph - N/A   Scattered Clouds
6:54 PM 30.2 °F 24.3 °F 19.4 °F 64% 30.27 in 10.0 mi East 5.8 mph - N/A   Clear
7:14 PM 28.4 °F 21.2 °F 19.4 °F 69% 30.27 in 10.0 mi East 6.9 mph - N/A   Scattered Clouds
7:34 PM 30.2 °F 21.9 °F 19.4 °F 64% 30.27 in 10.0 mi East 9.2 mph - N/A   Clear
7:54 PM 28.4 °F 20.4 °F 19.4 °F 69% 30.27 in 10.0 mi East 8.1 mph - N/A   Clear
8:14 PM 28.4 °F 19.7 °F 19.4 °F 69% 30.27 in 10.0 mi East 9.2 mph - N/A   Scattered Clouds
8:34 PM 28.4 °F 19.7 °F 21.2 °F 74% 30.27 in 10.0 mi East 9.2 mph - N/A   Clear
8:54 PM 28.4 °F 20.4 °F 21.2 °F 74% 30.27 in 10.0 mi East 8.1 mph - N/A   Clear
9:14 PM 28.4 °F 20.4 °F 21.2 °F 74% 30.28 in 10.0 mi East 8.1 mph - N/A   Clear
9:34 PM 28.4 °F 22.2 °F 21.2 °F 74% 30.28 in 10.0 mi East 5.8 mph - N/A   Clear
9:54 PM 28.4 °F 20.4 °F 21.2 °F 74% 30.28 in 10.0 mi East 8.1 mph - N/A   Scattered Clouds
10:13 PM 28.4 °F 19.7 °F 21.2 °F 74% 30.27 in 10.0 mi East 9.2 mph - N/A   Clear
10:34 PM 28.4 °F 19.7 °F 21.2 °F 74% 30.28 in 10.0 mi East 9.2 mph - N/A   Clear
10:54 PM 28.4 °F 20.4 °F 21.2 °F 74% 30.28 in 10.0 mi East 8.1 mph - N/A   Clear
11:13 PM 28.4 °F 19.7 °F 21.2 °F 74% 30.27 in 10.0 mi East 9.2 mph - N/A   Scattered Clouds
11:54 PM 28.4 °F 19.1 °F 21.2 °F 74% 30.26 in 10.0 mi East 10.4 mph - N/A   Overcast